Miami, FL

9:07 AM EST on January 22, 2017 (GMT -0500)
Kendall-Tamiami Executive

Weather History for KTMB - November, 2012

Change the Weather History Date:

Saturday, November 24, 2012

  Actual Average Record
Temperature  
Mean Temperature 64 °F -  
Max Temperature 75 °F 82 °F 88 °F (2014)
Min Temperature 52 °F 66 °F 46 °F (2005)
Degree Days  
Heating Degree Days 2    
Growing Degree Days 14 (Base 50)    
Moisture  
Dew Point 52 °F    
Average Humidity 70    
Maximum Humidity 97    
Minimum Humidity 46    
Precipitation  
Precipitation 0.00 in - - ()
Sea Level Pressure  
Sea Level Pressure 30.08 in    
Wind  
Wind Speed 6 mph (NW)    
Max Wind Speed 16 mph    
Max Gust Speed 21 mph    
Visibility 10 miles    
Events      
Averages and records for this station are not official NWS values.
T = Trace of Precipitation, MM = Missing Value Source: NWS Daily Summary

Daily Weather History Graph

Daily Weather History Graph

Search for Another Location

Airport or City:

Trip Planner

Search our weather history database for the weather conditions in past years. The results will help you decide how hot, cold, wet, or windy it might be!

Date:

Astronomy

Nov. 24, 2012 Rise Set
Actual Time 6:46 AM EST 5:30 PM EST
Civil Twilight 6:21 AM EST 5:55 PM EST
Nautical Twilight 5:53 AM EST 6:23 PM EST
Astronomical Twilight 5:25 AM EST 6:51 PM EST
Moon 3:00 PM EST (11/24) 3:18 AM EST (11/24)
Length of Visible Light 11h 33m
Length of Day
10h 44m
Waxing Gibbous, 87% of the Moon is Illuminated
Nov 24
Waxing Gibbous
Nov 28
Full
Dec 6
Last Quarter
Dec 13
New
Dec 20
First Quarter

Hourly Weather History & Observations

Time (EST) Temp. Dew Point Humidity Pressure Visibility Wind Dir Wind Speed Gust Speed Precip Events Conditions
12:53 AM 57.9 °F 53.1 °F 84% 30.09 in 10.0 mi Calm Calm - N/A   Clear
1:53 AM 53.1 °F 51.1 °F 93% 30.08 in 10.0 mi NW 4.6 mph - N/A   Clear
2:53 AM 55.0 °F 51.1 °F 86% 30.07 in 10.0 mi NNW 6.9 mph - N/A   Clear
3:53 AM 55.0 °F 48.0 °F 77% 30.07 in 10.0 mi NNW 6.9 mph - N/A   Clear
4:53 AM 52.0 °F 46.0 °F 80% 30.07 in 10.0 mi NNW 4.6 mph - N/A   Clear
5:53 AM 53.1 °F 46.0 °F 77% 30.09 in 10.0 mi NNW 5.8 mph - N/A   Clear
6:53 AM 53.1 °F 46.9 °F 80% 30.11 in 10.0 mi NNW 6.9 mph - N/A   Clear
7:53 AM 57.9 °F 48.9 °F 72% 30.12 in 10.0 mi NNW 5.8 mph - N/A   Clear
8:53 AM 64.9 °F 52.0 °F 63% 30.13 in 10.0 mi NNW 10.4 mph - N/A   Clear
9:53 AM 69.1 °F 53.1 °F 57% 30.14 in 10.0 mi North 12.7 mph - N/A   Clear
10:53 AM 71.1 °F 54.0 °F 55% 30.12 in 10.0 mi North 13.8 mph - N/A   Clear
11:53 AM 73.0 °F 54.0 °F 51% 30.10 in 10.0 mi NNW 16.1 mph - N/A   Clear
12:53 PM 73.0 °F 54.0 °F 51% 30.06 in 10.0 mi NNW 12.7 mph - N/A   Clear
1:53 PM 75.0 °F 54.0 °F 48% 30.04 in 10.0 mi NW 13.8 mph 20.7 mph N/A   Clear
2:53 PM 75.0 °F 53.1 °F 46% 30.03 in 10.0 mi NW 12.7 mph - N/A   Clear
3:53 PM 75.0 °F 53.1 °F 46% 30.02 in 10.0 mi NW 9.2 mph - N/A   Clear
4:53 PM 72.0 °F 52.0 °F 49% 30.02 in 10.0 mi NW 5.8 mph - N/A   Clear
5:53 PM 66.0 °F 53.1 °F 63% 30.03 in 10.0 mi Calm Calm - N/A   Clear
6:53 PM 64.9 °F 51.1 °F 61% 30.05 in 10.0 mi Calm Calm - N/A   Clear
7:53 PM 63.0 °F 55.9 °F 78% 30.06 in 10.0 mi WSW 6.9 mph - N/A   Clear
8:53 PM 62.1 °F 57.0 °F 84% 30.07 in 10.0 mi WSW 3.5 mph - N/A   Clear
9:53 PM 61.0 °F 57.0 °F 87% 30.09 in 9.0 mi Calm Calm - N/A   Clear
10:53 PM 57.9 °F 55.9 °F 93% 30.09 in 8.0 mi West 4.6 mph - N/A   Clear
11:53 PM 55.9 °F 55.0 °F 97% 30.09 in 7.0 mi WNW 4.6 mph - N/A   Clear